Terug naar catalogus

INTELSAT 33E DEB

ActiefGEO
NORAD 62000·DEBRIS· XX

Gelanceerd Aug 24, 2016 vanaf Guiana Space Centre

Loading…

TLE

VersSource: Space-Track

Epoch: Sep 13, 2026, 23:44 UTC

1 62000U 16053S   26256.98928329 -.00000293  00000-0  00000-0 0  9999
2 62000   1.9317  89.5461 0039473 352.5369   8.1300  1.00110188  6977

Volg INTELSAT 33E DEB in realtime met AllMySat

Download on the App Store